This is the latest recevied weather packets stored in our database for station/object OE9MNR-10. If no packets are shown the sender has not sent any weather packets the latest 10 day(s).
| Time | Temp. | Humidity | Pressure | Rain* | Wind** | Luminosity | Snow |
|---|---|---|---|---|---|---|---|
| 1787830130 | 28.89° C | 100% | 965.5 hPa | - | - | - | - |
| 1787829830 | 28.33° C | 100% | 965.6 hPa | - | - | - | - |
| 1787829530 | 27.78° C | 100% | 965.6 hPa | - | - | - | - |
| 1787828930 | 27.78° C | 100% | 965.7 hPa | - | - | - | - |
| 1787828630 | 27.78° C | 100% | 965.9 hPa | - | - | - | - |
| 1787828330 | 26.67° C | 100% | 965.9 hPa | - | - | - | - |
| 1787828030 | 26.11° C | 100% | 966 hPa | - | - | - | - |
| 1787827730 | 26.11° C | 100% | 966.1 hPa | - | - | - | - |
| 1787827430 | 26.11° C | 100% | 966.1 hPa | - | - | - | - |
| 1787827130 | 25.56° C | 100% | 966 hPa | - | - | - | - |
| 1787826830 | 25.56° C | 100% | 966.3 hPa | - | - | - | - |
| 1787826530 | 25.56° C | 100% | 966.3 hPa | - | - | - | - |
| 1787826230 | 25° C | 100% | 966.3 hPa | - | - | - | - |
| 1787825630 | 25.56° C | 100% | 966.4 hPa | - | - | - | - |
| 1787825330 | 25° C | 100% | 966.4 hPa | - | - | - | - |
| 1787825029 | 25.56° C | 100% | 966.6 hPa | - | - | - | - |
| 1787824730 | 25.56° C | 100% | 966.5 hPa | - | - | - | - |
| 1787824430 | 25° C | 100% | 966.6 hPa | - | - | - | - |
| 1787824129 | 25° C | 100% | 966.6 hPa | - | - | - | - |
| 1787823829 | 24.44° C | 100% | 966.7 hPa | - | - | - | - |
| 1787823529 | 23.89° C | 100% | 966.7 hPa | - | - | - | - |
| 1787823229 | 24.44° C | 100% | 966.8 hPa | - | - | - | - |
| 1787822929 | 23.89° C | 100% | 966.7 hPa | - | - | - | - |
| 1787822329 | 23.89° C | 100% | 966.6 hPa | - | - | - | - |
| 1787822029 | 24.44° C | 100% | 966.6 hPa | - | - | - | - |
* Rain since midnight (hover to see other rain measurements)
** Current wind speed in m/s (hover to see current wind gust speed)